Weather History for Waseca, MN

Change the Weather History Date:

Wednesday, December 12, 2012

  Actual Average Record
Temperature  
Mean Temperature 30 °F -  
Max Temperature 42 °F 26 °F 49 °F (1946)
Min Temperature 19 °F 8 °F -17 °F (1932)
Degree Days  
Heating Degree Days 34    
Moisture  
Dew Point 24 °F    
Average Humidity 65    
Maximum Humidity 86    
Minimum Humidity 52    
Precipitation  
Precipitation 0.01 in - - ()
Sea Level Pressure  
Sea Level Pressure 29.91 in    
Wind  
Wind Speed 14 mph (SSE)    
Max Wind Speed 25 mph    
Max Gust Speed 33 mph    
Visibility 10 miles    
Events      
Averages and records for this station are not official NWS values.
T = Trace of Precipitation, MM = Missing Value Source: NWS Daily Summary

Daily Weather History Graph

Daily Weather History Graph

Search for Another Location

Airport:

Trip Planner

Search our weather history database for the weather conditions in past years. The results will help you decide how hot, cold, wet, or windy it might be!

Date:

Astronomy

Dec. 12, 2012 Rise Set
Actual Time 7:40 AM CST 4:36 PM CST
Civil Twilight 7:07 AM CST 5:09 PM CST
Nautical Twilight 6:30 AM CST 5:45 PM CST
Astronomical Twilight 5:55 AM CST 6:20 PM CST
Moon 6:44 AM CST (12/12) 4:14 PM CST (12/12)
Length of Visible Light 10h 01m
Length of Day
8h 55m
Waning Crescent, 1% of the Moon is Illuminated
Dec 12
Waning Crescent
Dec 13
New
Dec 19
First Quarter
Dec 28
Full
Jan 4
Last Quarter

Hourly Weather History & Observations

Time (CST) Temp. Windchill Dew Point Humidity Pressure Visibility Wind Dir Wind Speed Gust Speed Precip Events Conditions
12:14 AM 19.4 °F 9.5 °F 15.8 °F 86% 29.98 in 5.0 mi ESE 8.1 mph - N/A   Clear
12:33 AM 21.2 °F 10.9 °F 17.6 °F 86% 29.98 in 5.0 mi SE 9.2 mph - N/A   Clear
12:54 AM 19.4 °F 9.5 °F 15.8 °F 86% 29.98 in 5.0 mi ESE 8.1 mph - N/A   Clear
1:13 AM 19.4 °F 8.6 °F 15.8 °F 86% 29.98 in 7.0 mi ESE 9.2 mph - N/A   Clear
1:33 AM 21.2 °F 10.9 °F 17.6 °F 86% 29.98 in 7.0 mi ESE 9.2 mph - N/A   Clear
1:54 AM 21.2 °F 10.9 °F 17.6 °F 86% 29.97 in 7.0 mi ESE 9.2 mph - N/A   Clear
2:13 AM 23.0 °F 12.4 °F 19.4 °F 86% 29.97 in 10.0 mi ESE 10.4 mph - N/A   Clear
2:34 AM 23.0 °F 12.4 °F 19.4 °F 86% 29.98 in 10.0 mi ESE 10.4 mph - N/A   Clear
2:53 AM 23.0 °F 12.4 °F 19.4 °F 86% 29.97 in 10.0 mi ESE 10.4 mph - N/A   Clear
3:13 AM 23.0 °F 13.1 °F 19.4 °F 86% 29.96 in 10.0 mi ESE 9.2 mph - N/A   Clear
3:33 AM 24.8 °F 13.4 °F 21.2 °F 86% 29.95 in 10.0 mi ESE 12.7 mph - N/A   Clear
3:54 AM 23.0 °F 13.9 °F 19.4 °F 86% 29.95 in 10.0 mi ESE 8.1 mph - N/A   Clear
4:13 AM 23.0 °F 13.1 °F 19.4 °F 86% 29.94 in 10.0 mi ESE 9.2 mph - N/A   Clear
4:33 AM 24.8 °F 16.1 °F 21.2 °F 86% 29.93 in 10.0 mi ESE 8.1 mph - N/A   Clear
4:54 AM 26.6 °F 16.8 °F 23.0 °F 86% 29.93 in 10.0 mi SE 10.4 mph - N/A   Clear
5:13 AM 28.4 °F 19.7 °F 23.0 °F 80% 29.92 in 10.0 mi SE 9.2 mph - N/A   Clear
5:34 AM 28.4 °F 18.0 °F 21.2 °F 74% 29.93 in 10.0 mi SSE 12.7 mph - N/A   Scattered Clouds
5:53 AM 30.2 °F 19.3 °F 23.0 °F 75% 29.92 in 10.0 mi South 15.0 mph - N/A   Scattered Clouds
6:14 AM 32.0 °F 21.6 °F 23.0 °F 69% 29.92 in 10.0 mi South 15.0 mph - N/A   Scattered Clouds
6:33 AM 32.0 °F 21.2 °F 21.2 °F 64% 29.92 in 10.0 mi South 16.1 mph 23.0 mph N/A   Mostly Cloudy
6:54 AM 33.8 °F 23.2 °F 23.0 °F 65% 29.91 in 10.0 mi South 17.3 mph - N/A   Overcast
7:14 AM 33.8 °F 22.5 °F 23.0 °F 65% 29.91 in 10.0 mi South 19.6 mph 25.3 mph N/A   Overcast
7:33 AM 33.8 °F 22.8 °F 23.0 °F 65% 29.90 in 10.0 mi South 18.4 mph 24.2 mph N/A   Mostly Cloudy
7:53 AM 33.8 °F 21.9 °F 23.0 °F 65% 29.90 in 10.0 mi South 21.9 mph - N/A   Mostly Cloudy
8:14 AM 33.8 °F 22.8 °F 23.0 °F 65% 29.91 in 10.0 mi South 18.4 mph 24.2 mph N/A   Mostly Cloudy
8:33 AM 33.8 °F 22.5 °F 23.0 °F 65% 29.91 in 10.0 mi South 19.6 mph 24.2 mph N/A   Overcast
8:54 AM 33.8 °F 21.9 °F 23.0 °F 65% 29.91 in 10.0 mi South 21.9 mph - N/A   Overcast
9:14 AM 35.6 °F 24.2 °F 23.0 °F 60% 29.91 in 10.0 mi South 21.9 mph - N/A   Overcast
9:33 AM 35.6 °F 24.5 °F 23.0 °F 60% 29.91 in 10.0 mi South 20.7 mph 26.5 mph N/A   Mostly Cloudy
9:54 AM 35.6 °F 24.0 °F 23.0 °F 60% 29.91 in 10.0 mi South 23.0 mph 27.6 mph N/A   Scattered Clouds
10:14 AM 35.6 °F 24.0 °F 23.0 °F 60% 29.91 in 10.0 mi South 23.0 mph 28.8 mph N/A   Scattered Clouds
10:33 AM 37.4 °F 26.6 °F 24.8 °F 60% 29.90 in 10.0 mi South 21.9 mph 29.9 mph N/A   Clear
10:54 AM 39.2 °F 28.5 °F 24.8 °F 56% 29.90 in 10.0 mi South 24.2 mph 32.2 mph 0.01 in   Clear
11:13 AM 39.2 °F 29.0 °F 23.0 °F 52% 29.89 in 10.0 mi South 21.9 mph 27.6 mph N/A   Clear
11:34 AM 39.2 °F 28.7 °F 23.0 °F 52% 29.88 in 10.0 mi South 23.0 mph 28.8 mph N/A   Clear
11:53 AM 39.2 °F 29.0 °F 23.0 °F 52% 29.88 in 10.0 mi South 21.9 mph - N/A   Clear
12:14 PM 39.2 °F 28.7 °F 24.8 °F 56% 29.87 in 10.0 mi South 23.0 mph 29.9 mph N/A   Clear
12:34 PM 39.2 °F 28.7 °F 26.6 °F 61% 29.86 in 10.0 mi South 23.0 mph 28.8 mph N/A   Clear
12:54 PM 39.2 °F 28.5 °F 26.6 °F 61% 29.86 in 10.0 mi South 24.2 mph 31.1 mph N/A   Clear
1:13 PM 41.0 °F 30.7 °F 26.6 °F 57% 29.85 in 10.0 mi South 25.3 mph 33.4 mph N/A   Clear
1:33 PM 41.0 °F 30.7 °F 26.6 °F 57% 29.84 in 10.0 mi South 25.3 mph 33.4 mph N/A   Clear
1:54 PM 41.0 °F 31.4 °F 26.6 °F 57% 29.84 in 10.0 mi South 21.9 mph 31.1 mph N/A   Clear
2:13 PM 42.8 °F 33.1 °F 26.6 °F 53% 29.84 in 10.0 mi South 25.3 mph 29.9 mph N/A   Clear
2:34 PM 42.8 °F 34.0 °F 26.6 °F 53% 29.84 in 10.0 mi South 20.7 mph - N/A   Clear
2:53 PM 42.8 °F 34.3 °F 28.4 °F 57% 29.85 in 10.0 mi South 19.6 mph - N/A   Clear
3:14 PM 42.8 °F 35.1 °F 26.6 °F 53% 29.85 in 10.0 mi South 16.1 mph - N/A   Clear
3:33 PM 42.8 °F 35.1 °F 26.6 °F 53% 29.86 in 10.0 mi South 16.1 mph - N/A   Clear
3:54 PM 41.0 °F 32.5 °F 26.6 °F 57% 29.86 in 10.0 mi South 17.3 mph - N/A   Clear
4:14 PM 41.0 °F 33.5 °F 26.6 °F 57% 29.86 in 10.0 mi South 13.8 mph - N/A   Clear
4:34 PM 41.0 °F 33.1 °F 26.6 °F 57% 29.87 in 10.0 mi South 15.0 mph - N/A   Clear
4:53 PM 41.0 °F 33.1 °F 26.6 °F 57% 29.88 in 10.0 mi South 15.0 mph - N/A   Clear
5:14 PM 41.0 °F 33.1 °F 26.6 °F 57% 29.88 in 10.0 mi South 15.0 mph - N/A   Scattered Clouds
5:33 PM 41.0 °F 34.3 °F 26.6 °F 57% 29.88 in 10.0 mi South 11.5 mph 17.3 mph N/A   Clear
5:54 PM 41.0 °F 33.9 °F 26.6 °F 57% 29.90 in 10.0 mi South 12.7 mph - N/A   Scattered Clouds
6:14 PM 41.0 °F 34.3 °F 26.6 °F 57% 29.90 in 10.0 mi South 11.5 mph - N/A   Clear
6:34 PM 39.2 °F 31.2 °F 26.6 °F 61% 29.90 in 10.0 mi South 13.8 mph - N/A   Clear
6:54 PM 39.2 °F 30.8 °F 26.6 °F 61% 29.91 in 10.0 mi South 15.0 mph - N/A   Clear
7:14 PM 39.2 °F 30.8 °F 26.6 °F 61% 29.91 in 10.0 mi South 15.0 mph - N/A   Clear
7:33 PM 39.2 °F 30.2 °F 26.6 °F 61% 29.92 in 10.0 mi South 17.3 mph - N/A   Clear
7:54 PM 39.2 °F 30.5 °F 26.6 °F 61% 29.93 in 10.0 mi South 16.1 mph - N/A   Clear
8:14 PM 39.2 °F 31.6 °F 26.6 °F 61% 29.94 in 10.0 mi South 12.7 mph - N/A   Clear
8:33 PM 39.2 °F 31.2 °F 26.6 °F 61% 29.94 in 10.0 mi South 13.8 mph - N/A   Clear
8:54 PM 39.2 °F 30.8 °F 26.6 °F 61% 29.94 in 10.0 mi South 15.0 mph - N/A   Clear
9:14 PM 39.2 °F 30.8 °F 24.8 °F 56% 29.94 in 10.0 mi South 15.0 mph 21.9 mph N/A   Clear
9:34 PM 39.2 °F 30.5 °F 24.8 °F 56% 29.94 in 10.0 mi South 16.1 mph - N/A   Clear
9:53 PM 39.2 °F 30.5 °F 24.8 °F 56% 29.94 in 10.0 mi South 16.1 mph - N/A   Clear
10:13 PM 35.6 °F 26.2 °F 23.0 °F 60% 29.95 in 10.0 mi South 15.0 mph - N/A   Clear
10:33 PM 35.6 °F 27.1 °F 23.0 °F 60% 29.95 in 10.0 mi South 12.7 mph - N/A   Clear
10:53 PM 35.6 °F 27.1 °F 23.0 °F 60% 29.96 in 10.0 mi South 12.7 mph - N/A   Clear
11:13 PM 35.6 °F 26.6 °F 23.0 °F 60% 29.95 in 10.0 mi South 13.8 mph - N/A   Clear
11:33 PM 37.4 °F 28.9 °F 23.0 °F 56% 29.96 in 10.0 mi South 13.8 mph - N/A   Clear
11:53 PM 37.4 °F 28.2 °F 23.0 °F 56% 29.96 in 10.0 mi South 16.1 mph - N/A   Clear